period_start,C,m1,H,J0,J1,J2,J3,J4,J5,JA,JB,JC,JD,JJ,JK,JN,#
2015-01-20 00:01:26,0.29,1.54,0.00,23.57,28.05,30.74,4.73,27.13,1020.04,2027.25,2865.56,2863.66,3109.22,349.35,347.45,5.25,0000 0000 0000 0000 000000
2015-01-20 00:06:27,0.32,1.55,0.00,23.60,28.05,30.75,4.80,27.08,1020.05,2027.48,2862.73,2861.53,3106.97,350.15,348.06,5.28,0000 0000 0000 0000 000000
2015-01-20 00:11:28,0.25,1.55,0.00,23.59,28.05,30.74,4.76,27.19,1020.07,2027.50,2860.04,2859.46,3104.64,349.80,347.89,5.30,0000 0000 0000 0000 000000
2015-01-20 00:16:29,0.25,1.56,0.00,23.61,28.05,30.74,4.76,27.26,1020.05,2027.44,2857.31,2857.36,3102.32,349.72,347.93,5.33,0000 0000 0000 0000 000000
2015-01-20 00:21:31,0.27,1.57,0.00,23.60,28.05,30.74,4.82,27.07,1020.06,2027.29,2854.49,2855.27,3100.04,349.84,347.95,5.36,0000 0000 0000 0000 000000
2015-01-20 00:26:32,0.27,1.58,0.00,23.61,28.05,30.75,4.73,27.09,1020.11,2027.33,2851.64,2853.12,3097.76,350.26,348.42,5.39,0000 0000 0000 0000 000000
2015-01-20 00:31:34,0.27,1.59,0.00,23.61,28.05,30.73,4.76,27.18,1020.11,2027.23,2848.77,2850.99,3095.43,349.90,348.06,5.42,0000 0000 0000 0000 000000
2015-01-20 00:36:35,0.26,1.59,0.00,23.58,28.05,30.69,4.83,27.23,1020.05,2027.13,2845.88,2848.80,3093.12,350.61,348.67,5.45,0000 0000 0000 0000 000000
2015-01-20 00:41:36,0.28,1.60,0.00,23.58,28.04,30.73,4.77,27.03,1020.05,2027.12,2842.93,2846.57,3090.81,349.54,347.82,5.48,0000 0000 0000 0000 000000
2015-01-20 00:46:37,0.26,1.61,0.00,23.58,28.04,30.71,4.81,27.21,1020.04,2027.17,2840.25,2844.45,3088.51,350.02,348.16,5.51,0000 0000 0000 0000 000000
2015-01-20 00:51:38,0.29,1.62,0.00,23.59,28.03,30.75,4.81,27.30,1020.04,2027.15,2837.48,2842.34,3086.19,350.06,348.26,5.54,0000 0000 0000 0000 000000
2015-01-20 00:56:39,0.27,1.63,0.00,23.56,28.03,30.74,4.80,27.13,1020.04,2027.09,2834.68,2840.22,3083.87,349.62,347.89,5.57,0000 0000 0000 0000 000000
2015-01-20 01:01:41,0.28,1.63,0.00,23.57,28.02,30.71,4.80,27.04,1020.04,2027.11,2831.90,2838.14,3081.66,350.27,348.44,5.60,0000 0000 0000 0000 000000
2015-01-20 01:06:42,0.26,1.64,0.00,23.55,28.02,30.72,4.77,27.19,1020.04,2027.15,2829.20,2836.07,3079.46,349.90,348.20,5.63,0000 0000 0000 0000 000000
2015-01-20 01:11:43,0.28,1.65,0.00,23.56,28.02,30.74,4.77,27.26,1020.04,2027.15,2826.39,2833.99,3077.24,349.86,348.08,5.66,0000 0000 0000 0000 000000
2015-01-20 01:16:45,0.29,1.66,0.00,23.59,28.02,30.75,4.83,27.32,1020.04,2027.33,2823.73,2831.95,3075.06,350.27,348.18,5.68,0000 0000 0000 0000 000000
2015-01-20 01:21:46,0.28,1.67,0.00,23.61,28.02,30.72,4.79,27.20,1020.04,2027.36,2821.00,2829.88,3072.79,349.80,348.13,5.71,0000 0000 0000 0000 000000
2015-01-20 01:26:48,0.26,1.68,0.00,23.58,28.02,30.74,4.75,27.18,1020.04,2027.48,2818.32,2827.82,3070.62,349.94,348.09,5.74,0000 0000 0000 0000 000000
2015-01-20 01:31:49,0.21,1.68,0.00,23.56,28.02,30.69,4.74,27.11,1020.04,2027.15,2815.49,2825.62,3068.39,350.26,348.45,5.77,0000 0000 0000 0000 000000
2015-01-20 01:36:51,0.28,1.69,0.00,23.56,28.02,30.68,4.76,27.27,1020.04,2027.08,2812.78,2823.50,3066.08,349.36,347.47,5.80,0000 0000 0000 0000 000000
2015-01-20 01:41:52,0.28,1.70,0.00,23.58,28.02,30.70,4.81,27.22,1020.04,2027.05,2809.97,2821.37,3063.76,350.23,348.41,5.83,0000 0000 0000 0000 000000
2015-01-20 01:46:54,0.28,1.71,0.00,23.59,28.02,30.69,4.74,27.27,1020.04,2027.10,2807.25,2819.27,3061.49,349.74,347.85,5.86,0000 0000 0000 0000 000000
2015-01-20 01:51:55,0.29,1.71,0.00,23.58,28.02,30.70,4.82,27.19,1020.04,2027.07,2804.47,2817.15,3059.13,349.84,347.83,5.89,0000 0000 0000 0000 000000
2015-01-20 01:56:56,0.27,1.72,0.00,23.57,28.02,30.69,4.78,27.07,1020.03,2027.08,2801.64,2815.05,3056.80,349.92,347.95,5.92,0000 0000 0000 0000 000000
2015-01-20 02:01:58,0.29,1.73,0.00,23.56,28.02,30.70,4.82,27.34,1020.03,2027.08,2798.70,2812.86,3054.38,349.70,347.96,5.95,0000 0000 0000 0000 000000
2015-01-20 02:06:59,0.31,1.74,0.00,23.56,28.02,30.68,4.77,27.08,1020.03,2027.05,2795.51,2810.52,3051.88,349.87,348.08,5.98,0000 0000 0000 0000 000000
2015-01-20 02:12:00,0.28,1.75,0.00,23.53,28.02,30.70,4.78,27.29,1020.03,2027.03,2792.46,2808.30,3049.52,349.60,347.93,6.01,0000 0000 0000 0000 000000
2015-01-20 02:17:02,0.29,1.76,0.00,23.53,28.02,30.69,4.81,27.16,1020.03,2027.05,2789.71,2806.20,3047.27,349.98,348.17,6.04,0000 0000 0000 0000 000000
2015-01-20 02:22:03,0.31,1.77,0.00,23.55,28.02,30.69,4.77,27.33,1020.03,2027.01,2786.73,2803.86,3044.58,349.69,348.00,6.07,0000 0000 0000 0000 000000
2015-01-20 02:27:04,0.31,1.78,0.00,23.55,28.02,30.71,4.77,27.36,1020.02,2027.02,2783.57,2801.54,3042.16,349.61,347.82,6.10,0000 0000 0000 0000 000000
2015-01-20 02:32:05,0.32,1.79,0.00,23.56,28.02,30.72,4.77,27.19,1019.97,2027.02,2780.26,2799.20,3039.64,350.41,348.56,6.12,0000 0000 0000 0000 000000
2015-01-20 02:37:07,0.32,1.79,0.00,23.58,28.02,30.70,4.77,27.30,1019.97,2027.02,2777.03,2796.81,3037.09,349.45,347.56,6.15,0000 0000 0000 0000 000000
2015-01-20 02:42:08,0.31,1.81,0.00,23.56,28.02,30.73,4.77,27.34,1019.99,2027.00,2773.73,2794.39,3034.53,350.33,348.50,6.18,0000 0000 0000 0000 000000
2015-01-20 02:47:09,0.29,1.81,0.00,23.60,28.02,30.75,4.85,27.32,1019.97,2027.03,2770.81,2792.26,3032.27,350.16,348.29,6.21,0000 0000 0000 0000 000000
2015-01-20 02:52:10,0.29,1.82,0.00,23.59,28.03,30.73,4.83,27.34,1019.83,2027.01,2767.85,2790.05,3030.00,350.22,348.31,6.24,0000 0000 0000 0000 000000
2015-01-20 02:57:12,0.29,1.83,0.00,23.57,28.03,30.74,4.79,27.11,1019.74,2027.02,2765.02,2787.92,3027.66,349.71,347.86,6.27,0000 0000 0000 0000 000000
2015-01-20 03:02:13,0.29,1.84,0.00,23.55,28.04,30.75,4.82,27.07,1019.62,2027.01,2762.10,2785.77,3025.36,349.84,347.88,6.30,0000 0000 0000 0000 000000
2015-01-20 03:07:14,0.28,1.85,0.00,23.55,28.04,30.76,4.84,27.12,1019.57,2027.04,2759.33,2783.75,3023.19,350.30,348.41,6.33,0000 0000 0000 0000 000000
2015-01-20 03:12:16,0.28,1.86,0.00,23.55,28.05,30.74,4.73,27.18,1019.55,2027.03,2756.53,2781.58,3020.96,349.51,347.52,6.36,0000 0000 0000 0000 000000
2015-01-20 03:17:17,0.29,1.87,0.00,23.56,28.04,30.73,4.81,27.30,1019.55,2027.04,2753.75,2779.46,3018.66,350.54,348.36,6.39,0000 0000 0000 0000 000000
2015-01-20 03:22:19,0.28,1.87,0.00,23.56,28.04,30.77,4.70,27.23,1019.55,2027.03,2751.02,2777.32,3016.38,349.57,347.60,6.42,0000 0000 0000 0000 000000
2015-01-20 03:27:20,0.27,1.88,0.00,23.58,28.04,30.75,4.76,27.27,1019.55,2027.04,2748.31,2775.31,3014.28,349.56,347.66,6.45,0000 0000 0000 0000 000000
2015-01-20 03:32:22,0.28,1.89,0.00,23.57,28.04,30.75,4.87,27.30,1019.55,2027.06,2745.65,2773.31,3012.11,350.63,348.59,6.48,0000 0000 0000 0000 000000
2015-01-20 03:37:23,0.27,1.90,0.00,23.54,28.04,30.76,4.78,27.30,1019.55,2027.04,2742.93,2771.27,3009.86,349.49,347.63,6.51,0000 0000 0000 0000 000000
2015-01-20 03:42:25,0.35,1.91,0.00,23.54,28.04,30.74,4.80,27.42,1019.55,2027.01,2739.68,2768.86,3007.34,349.95,348.07,6.53,0000 0000 0000 0000 000000
2015-01-20 03:47:26,0.41,1.92,0.00,23.55,28.04,30.71,4.83,27.17,1019.55,2027.01,2735.56,2765.83,3004.16,350.44,348.56,6.56,0000 0000 0000 0000 000000
2015-01-20 03:52:27,0.31,1.93,0.00,23.54,28.04,30.74,4.81,27.03,1019.55,2027.01,2732.29,2763.43,3001.58,350.31,348.38,6.59,0000 0000 0000 0000 000000
2015-01-20 03:57:29,0.31,1.94,0.00,23.54,28.04,30.72,4.78,27.25,1019.55,2027.02,2729.33,2761.20,2999.25,349.99,348.18,6.62,0000 0000 0000 0000 000000
2015-01-20 04:02:30,0.29,1.95,0.00,23.57,28.05,30.73,4.76,27.40,1019.55,2027.01,2726.52,2759.06,2996.89,349.77,347.75,6.65,0000 0000 0000 0000 000000
2015-01-20 04:07:32,0.27,1.96,0.00,23.56,28.05,30.70,4.85,27.37,1019.55,2027.00,2723.80,2757.02,2994.71,350.29,348.28,6.68,0000 0000 0000 0000 000000
2015-01-20 04:12:33,0.25,1.96,0.00,23.57,28.05,30.73,4.79,27.45,1019.55,2027.02,2721.33,2755.16,2992.73,350.24,348.24,6.71,0000 0000 0000 0000 000000
2015-01-20 04:17:34,0.26,1.97,0.00,23.56,28.05,30.72,4.82,27.55,1019.55,2027.00,2718.72,2753.20,2990.65,349.87,347.89,6.74,0000 0000 0000 0000 000000
2015-01-20 04:22:35,0.25,1.98,0.00,23.54,28.04,30.71,4.82,27.48,1019.55,2027.03,2716.26,2751.47,2988.61,350.01,348.12,6.77,0000 0000 0000 0000 000000
2015-01-20 04:27:36,0.26,1.99,0.00,23.54,28.04,30.73,4.82,27.47,1019.55,2027.01,2713.62,2749.56,2986.49,350.18,348.07,6.80,0000 0000 0000 0000 000000
2015-01-20 04:32:38,0.27,1.99,0.00,23.56,28.05,30.74,4.82,27.36,1019.53,2027.01,2711.21,2747.73,2984.49,350.14,348.16,6.83,0000 0000 0000 0000 000000
2015-01-20 04:37:39,0.25,2.00,0.00,23.58,28.04,30.72,4.84,27.38,1019.49,2027.01,2708.66,2745.85,2982.48,349.86,347.85,6.86,0000 0000 0000 0000 000000
2015-01-20 04:42:40,0.27,2.01,0.00,23.54,28.04,30.72,4.84,27.30,1019.53,2027.01,2706.05,2743.91,2980.35,350.13,347.99,6.89,0000 0000 0000 0000 000000
2015-01-20 04:47:41,0.24,2.02,0.00,23.53,28.04,30.76,4.74,27.33,1019.53,2027.01,2703.62,2742.07,2978.39,349.85,347.94,6.92,0000 0000 0000 0000 000000
2015-01-20 04:52:42,0.26,2.03,0.00,23.33,28.05,30.78,4.83,27.38,1019.52,2027.00,2701.15,2740.16,2976.35,349.78,348.06,6.94,0000 0000 0000 0000 000000
2015-01-20 04:57:43,0.27,2.03,0.00,23.33,28.04,30.78,4.76,27.41,1019.52,2027.00,2698.60,2738.26,2974.21,349.94,348.17,6.97,0000 0000 0000 0000 000000
2015-01-20 05:02:45,0.26,2.04,0.00,23.32,28.04,30.82,4.81,27.33,1019.55,2027.00,2696.12,2736.38,2972.15,350.25,348.56,7.00,0000 0000 0000 0000 000000
2015-01-20 05:07:45,0.26,2.05,0.00,23.35,28.03,30.79,4.79,27.36,1019.55,2027.00,2693.65,2734.52,2970.10,350.08,348.29,7.03,0000 0000 0000 0000 000000
2015-01-20 05:12:47,0.26,2.06,0.00,23.34,28.03,30.78,4.74,27.30,1019.55,2027.00,2691.20,2732.67,2968.15,349.60,347.90,7.06,0000 0000 0000 0000 000000
2015-01-20 05:17:48,0.26,2.06,0.00,23.34,28.02,30.75,4.81,27.27,1019.55,2027.01,2688.73,2730.80,2966.11,350.16,348.36,7.09,0000 0000 0000 0000 000000
2015-01-20 05:22:49,0.27,2.07,0.00,23.35,28.02,30.80,4.84,27.49,1019.55,2027.02,2686.23,2728.86,2964.04,349.95,348.15,7.12,0000 0000 0000 0000 000000
2015-01-20 05:27:50,0.26,2.08,0.00,23.34,28.02,30.79,4.81,27.38,1019.55,2027.01,2683.70,2726.98,2962.01,350.10,348.39,7.15,0000 0000 0000 0000 000000
2015-01-20 05:32:51,0.27,2.09,0.00,23.32,28.03,30.80,4.83,27.47,1019.55,2027.00,2681.13,2725.03,2959.92,350.47,348.80,7.18,0000 0000 0000 0000 000000
2015-01-20 05:37:53,0.26,2.10,0.00,23.29,28.04,30.77,4.79,27.31,1019.55,2027.00,2678.54,2723.08,2957.84,349.82,347.95,7.21,0000 0000 0000 0000 000000
2015-01-20 05:42:54,0.27,2.10,0.00,23.33,28.04,30.81,4.82,27.54,1019.56,2027.00,2676.04,2721.18,2955.73,350.55,348.85,7.24,0000 0000 0000 0000 000000
2015-01-20 05:47:55,0.26,2.11,0.00,23.36,28.05,30.79,4.78,27.39,1019.56,2027.00,2673.54,2719.29,2953.68,350.25,348.25,7.27,0000 0000 0000 0000 000000
2015-01-20 05:52:57,0.27,2.12,0.00,23.37,28.05,30.77,4.79,27.53,1019.57,2027.00,2671.06,2717.34,2951.65,349.68,348.10,7.30,0000 0000 0000 0000 000000
2015-01-20 05:57:58,0.26,2.13,0.00,23.40,28.05,30.78,4.83,27.32,1019.56,2027.00,2668.56,2715.48,2949.62,349.98,348.13,7.33,0000 0000 0000 0000 000000
2015-01-20 06:02:59,0.27,2.13,0.00,23.43,28.07,30.74,4.82,27.17,1019.58,2027.00,2666.02,2713.50,2947.47,350.51,348.75,7.35,0000 0000 0000 0000 000000
2015-01-20 06:08:01,0.26,2.14,0.00,23.43,28.07,30.78,4.81,27.38,1019.61,2027.00,2663.56,2711.64,2945.49,350.21,348.45,7.38,0000 0000 0000 0000 000000
2015-01-20 06:13:02,0.26,2.15,0.00,23.41,28.08,30.77,4.83,27.43,1019.58,2027.00,2661.15,2709.77,2943.59,349.95,348.25,7.41,0000 0000 0000 0000 000000
2015-01-20 06:18:03,0.26,2.16,0.00,23.41,28.10,30.77,4.86,27.43,1019.82,2027.00,2658.75,2707.97,2941.56,349.79,348.05,7.44,0000 0000 0000 0000 000000
2015-01-20 06:23:05,0.25,2.17,0.00,23.45,28.10,30.78,4.79,27.27,1019.79,2027.00,2656.31,2706.07,2939.56,349.61,347.83,7.47,0000 0000 0000 0000 000000
2015-01-20 06:28:06,0.26,2.17,0.00,23.45,28.11,30.79,4.85,27.27,1019.78,2026.99,2653.94,2704.27,2937.54,350.24,348.50,7.50,0000 0000 0000 0000 000000
2015-01-20 06:33:07,0.26,2.18,0.00,23.44,28.12,30.81,4.80,27.30,1019.77,2026.97,2651.43,2702.39,2935.54,349.91,348.17,7.53,0000 0000 0000 0000 000000
2015-01-20 06:38:08,0.26,2.19,0.00,23.48,28.12,30.84,4.81,27.32,1019.62,2026.95,2649.01,2700.59,2933.56,349.64,347.73,7.56,0000 0000 0000 0000 000000
2015-01-20 06:43:09,0.27,2.20,0.00,23.45,28.12,30.82,4.76,27.21,1019.60,2026.97,2646.54,2698.72,2931.61,349.68,347.85,7.59,0000 0000 0000 0000 000000
2015-01-20 06:48:10,0.24,2.21,0.00,23.45,28.13,30.86,4.91,27.33,1019.60,2026.97,2644.28,2696.97,2929.73,350.47,348.52,7.62,0000 0000 0000 0000 000000
2015-01-20 06:53:12,0.25,2.21,0.00,23.48,28.14,30.84,4.80,27.28,1019.60,2026.93,2641.89,2695.16,2927.77,350.01,348.15,7.65,0000 0000 0000 0000 000000
2015-01-20 06:58:13,0.24,2.22,0.00,23.50,28.15,30.86,4.80,27.32,1019.57,2026.92,2639.57,2693.47,2925.89,349.64,347.54,7.68,0000 0000 0000 0000 000000
2015-01-20 07:03:14,0.24,2.23,0.00,23.50,28.15,30.87,4.83,27.29,1019.56,2026.94,2637.37,2691.81,2924.13,349.90,348.01,7.71,0000 0000 0000 0000 000000
2015-01-20 07:08:15,0.23,2.23,0.00,23.48,28.15,30.87,4.76,27.31,1019.55,2026.94,2635.17,2690.14,2922.34,349.60,347.73,7.74,0000 0000 0000 0000 000000
2015-01-20 07:13:17,0.24,2.24,0.00,23.49,28.15,30.88,4.75,27.55,1019.57,2026.95,2632.81,2688.42,2920.47,349.77,348.03,7.76,0000 0000 0000 0000 000000
2015-01-20 07:18:18,0.26,2.25,0.00,23.50,28.15,30.87,4.81,27.31,1019.57,2026.94,2630.47,2686.71,2918.52,349.89,347.98,7.79,0000 0000 0000 0000 000000
2015-01-20 07:23:19,0.24,2.26,0.00,23.51,28.16,30.88,4.76,27.25,1019.57,2026.87,2628.12,2684.94,2916.57,349.66,347.84,7.82,0000 0000 0000 0000 000000
2015-01-20 07:28:20,0.26,2.26,0.00,23.48,28.17,30.91,4.84,27.32,1019.59,2026.89,2625.69,2683.15,2914.67,350.31,348.49,7.85,0000 0000 0000 0000 000000
2015-01-20 07:33:22,0.24,2.27,0.00,23.50,28.17,30.91,4.78,27.31,1019.66,2026.85,2623.38,2681.41,2912.79,350.18,348.26,7.88,0000 0000 0000 0000 000000
2015-01-20 07:38:23,0.21,2.28,0.00,23.48,28.17,30.90,4.75,27.32,1019.74,2026.74,2621.21,2679.67,2910.87,350.07,348.30,7.91,0000 0000 0000 0000 000000
2015-01-20 07:43:25,0.26,2.28,0.00,23.48,28.17,30.92,4.79,27.42,1019.68,2026.55,2618.76,2677.74,2908.80,350.03,348.19,7.94,0000 0000 0000 0000 000000
2015-01-20 07:48:26,0.23,2.29,0.00,23.49,28.17,30.91,4.84,27.42,1019.74,2026.63,2616.49,2676.02,2906.95,350.25,348.48,7.97,0000 0000 0000 0000 000000
2015-01-20 07:53:27,0.25,2.30,0.00,23.50,28.17,30.87,4.84,27.21,1019.72,2026.49,2614.09,2674.25,2905.00,350.19,348.33,8.00,0000 0000 0000 0000 000000
2015-01-20 07:58:28,0.26,2.31,0.00,23.52,28.17,30.88,4.83,27.44,1019.77,2026.54,2611.82,2672.59,2903.19,349.98,348.08,8.03,0000 0000 0000 0000 000000
2015-01-20 08:03:30,0.25,2.31,0.00,23.54,28.17,30.88,4.78,27.18,1019.88,2026.56,2609.56,2670.84,2901.31,349.81,347.98,8.06,0000 0000 0000 0000 000000
2015-01-20 08:08:31,0.24,2.32,0.00,23.52,28.17,30.91,4.92,27.39,1019.87,2026.49,2607.28,2669.10,2899.45,350.60,348.61,8.09,0000 0000 0000 0000 000000
2015-01-20 08:13:32,0.24,2.33,0.00,23.52,28.17,30.94,4.81,27.32,1019.82,2026.43,2604.95,2667.37,2897.53,349.73,347.84,8.12,0000 0000 0000 0000 000000
2015-01-20 08:18:33,0.29,2.34,0.00,23.54,28.17,30.88,4.69,27.21,1019.93,2026.57,2602.65,2665.63,2895.69,349.52,347.64,8.15,0000 0000 0000 0000 000000
2015-01-20 08:23:35,0.23,2.34,0.00,23.55,28.17,30.88,4.80,27.44,1019.84,2026.57,2600.36,2663.94,2893.84,349.82,348.08,8.17,0000 0000 0000 0000 000000
2015-01-20 08:28:36,0.27,2.35,0.00,23.56,28.17,30.88,4.81,27.27,1019.76,2026.62,2598.03,2662.19,2891.92,349.87,347.98,8.20,0000 0000 0000 0000 000000
2015-01-20 08:33:37,0.26,2.36,0.00,23.55,28.17,30.89,4.72,27.21,1019.73,2026.56,2595.75,2660.50,2890.10,349.51,347.60,8.23,0000 0000 0000 0000 000000
2015-01-20 08:38:38,0.21,2.37,0.00,23.56,28.18,30.87,4.81,27.29,1019.83,2026.50,2593.51,2658.80,2888.22,350.41,348.56,8.26,0000 0000 0000 0000 000000
2015-01-20 08:43:40,0.25,2.37,0.00,23.54,28.18,30.89,4.82,27.42,1019.98,2026.36,2591.10,2657.02,2886.40,350.07,348.26,8.29,0000 0000 0000 0000 000000
2015-01-20 08:48:42,0.26,2.38,0.00,23.55,28.19,30.90,4.78,27.30,1020.03,2026.55,2588.92,2655.40,2884.58,349.74,348.04,8.32,0000 0000 0000 0000 000000
2015-01-20 08:53:43,0.20,2.39,0.00,23.57,28.20,30.93,4.77,27.35,1020.03,2026.29,2586.53,2653.55,2882.63,349.78,348.05,8.35,0000 0000 0000 0000 000000
2015-01-20 08:58:44,0.27,2.40,0.00,23.56,28.20,30.91,4.81,27.42,1020.03,2026.23,2584.18,2651.78,2880.70,349.92,347.99,8.38,0000 0000 0000 0000 000000
2015-01-20 09:03:46,0.23,2.40,0.00,23.55,28.20,30.87,4.80,27.49,1020.03,2026.12,2581.90,2650.00,2878.91,349.99,348.14,8.41,0000 0000 0000 0000 000000
2015-01-20 09:08:47,0.23,2.41,0.00,23.58,28.20,30.88,4.84,27.43,1020.03,2026.10,2579.61,2648.38,2877.15,350.40,348.50,8.44,0000 0000 0000 0000 000000
2015-01-20 09:13:48,0.28,2.42,0.00,23.54,28.20,30.92,4.80,27.46,1020.03,2026.24,2577.39,2646.70,2875.44,350.15,348.38,8.47,0000 0000 0000 0000 000000
2015-01-20 09:18:49,0.24,2.42,0.00,23.56,28.20,30.93,4.77,27.55,1020.03,2026.30,2575.23,2645.08,2873.61,349.38,347.58,8.50,0000 0000 0000 0000 000000
2015-01-20 09:23:51,0.25,2.43,0.00,23.56,28.20,30.90,4.79,27.46,1020.03,2026.21,2572.92,2643.37,2871.73,350.24,348.42,8.53,0000 0000 0000 0000 000000
2015-01-20 09:28:52,0.24,2.44,0.00,23.58,28.20,30.93,4.78,27.39,1020.03,2026.11,2570.69,2641.62,2869.84,350.05,348.14,8.56,0000 0000 0000 0000 000000
2015-01-20 09:33:53,0.21,2.45,0.00,23.59,28.20,30.95,4.71,27.32,1020.03,2026.06,2568.53,2640.04,2868.12,349.53,347.90,8.58,0000 0000 0000 0000 000000
2015-01-20 09:38:54,0.25,2.45,0.00,23.57,28.20,30.93,4.79,27.45,1020.04,2026.08,2566.36,2638.46,2866.39,349.82,348.00,8.61,0000 0000 0000 0000 000000
2015-01-20 09:43:56,0.23,2.46,0.00,23.58,28.19,30.88,4.82,27.46,1020.04,2026.03,2564.25,2636.77,2864.61,349.99,348.23,8.64,0000 0000 0000 0000 000000
2015-01-20 09:48:57,0.20,2.47,0.00,23.58,28.19,30.92,4.86,27.53,1020.04,2026.04,2562.28,2635.43,2863.06,350.19,348.41,8.67,0000 0000 0000 0000 000000
2015-01-20 09:53:58,0.24,2.47,0.00,23.51,28.19,30.94,4.89,27.54,1020.01,2026.09,2560.31,2633.88,2861.50,351.05,349.35,8.70,0000 0000 0000 0000 000000
2015-01-20 09:58:59,0.21,2.48,0.00,23.54,28.19,30.91,4.77,27.20,1020.02,2026.07,2558.44,2632.35,2859.78,350.30,348.51,8.73,0000 0000 0000 0000 000000
2015-01-20 10:04:00,0.25,2.49,0.00,23.56,28.18,30.93,4.90,27.48,1020.02,2026.06,2556.28,2630.68,2858.02,350.22,348.52,8.76,0000 0000 0000 0000 000000
2015-01-20 10:09:02,0.23,2.49,0.00,23.56,28.18,30.93,4.76,27.25,1020.03,2026.05,2554.11,2629.07,2856.29,349.57,347.54,8.79,0000 0000 0000 0000 000000
2015-01-20 10:14:03,0.24,2.50,0.00,23.56,28.17,30.90,4.80,27.34,1019.99,2026.06,2552.05,2627.57,2854.61,349.69,347.89,8.82,0000 0000 0000 0000 000000
2015-01-20 10:19:04,0.27,2.51,0.00,23.56,28.17,30.91,4.80,27.25,1020.00,2026.10,2549.79,2625.88,2852.81,349.09,347.28,8.85,0000 0000 0000 0000 000000
2015-01-20 10:24:06,0.24,2.52,0.00,23.57,28.17,30.90,4.90,27.43,1020.00,2026.11,2547.59,2624.26,2851.01,350.37,348.59,8.88,0000 0000 0000 0000 000000
2015-01-20 10:29:07,0.25,2.52,0.00,23.58,28.17,30.86,4.78,27.29,1019.99,2026.07,2545.31,2622.68,2849.17,350.04,348.17,8.91,0000 0000 0000 0000 000000
2015-01-20 10:34:09,0.26,2.53,0.00,23.54,28.17,30.87,4.83,27.37,1019.95,2026.10,2543.08,2620.99,2847.34,349.87,347.78,8.94,0000 0000 0000 0000 000000
2015-01-20 10:39:10,0.23,2.54,0.00,23.55,28.17,30.93,4.79,27.18,1019.92,2026.05,2540.82,2619.34,2845.47,350.04,348.16,8.97,0000 0000 0000 0000 000000
2015-01-20 10:44:11,0.26,2.54,0.00,23.55,28.17,30.92,4.81,27.35,1019.96,2026.08,2538.64,2617.71,2843.71,349.49,347.73,8.99,0000 0000 0000 0000 000000
2015-01-20 10:49:13,0.25,2.55,0.00,23.56,28.17,30.91,4.80,27.32,1019.93,2026.12,2536.45,2616.03,2841.86,350.47,348.64,9.02,0000 0000 0000 0000 000000
2015-01-20 10:54:14,0.26,2.56,0.00,23.57,28.17,30.88,4.70,27.27,1020.00,2026.20,2534.15,2614.34,2840.07,349.62,347.92,9.05,0000 0000 0000 0000 000000
2015-01-20 10:59:16,0.24,2.57,0.00,23.57,28.17,30.91,4.74,27.41,1020.01,2026.12,2531.87,2612.67,2838.19,349.78,347.98,9.08,0000 0000 0000 0000 000000
2015-01-20 11:04:17,0.28,2.58,0.00,23.54,28.17,30.93,4.85,27.58,1020.03,2026.19,2529.56,2610.93,2836.41,350.32,348.48,9.11,0000 0000 0000 0000 000000
2015-01-20 11:09:18,0.25,2.58,0.00,23.57,28.17,30.90,4.81,27.38,1020.03,2026.10,2527.22,2609.12,2834.49,350.17,348.44,9.14,0000 0000 0000 0000 000000
2015-01-20 11:14:19,0.26,2.59,0.00,23.62,28.17,30.91,4.80,27.53,1020.03,2026.14,2524.90,2607.48,2832.64,350.12,348.10,9.17,0000 0000 0000 0000 000000
2015-01-20 11:19:21,0.27,2.60,0.00,23.54,28.17,30.92,4.82,27.54,1019.98,2026.11,2522.56,2605.74,2830.78,350.18,348.38,9.20,0000 0000 0000 0000 000000
2015-01-20 11:24:22,0.26,2.61,0.00,23.57,28.17,30.92,4.81,27.57,1020.01,2026.16,2520.29,2604.03,2828.97,349.75,347.96,9.23,0000 0000 0000 0000 000000
2015-01-20 11:29:23,0.25,2.62,0.00,23.61,28.17,30.91,4.82,27.56,1019.99,2026.24,2518.03,2602.34,2827.19,350.01,347.99,9.26,0000 0000 0000 0000 000000
2015-01-20 11:34:24,0.24,2.62,0.00,23.57,28.17,30.90,4.84,27.54,1019.72,2026.09,2515.75,2600.64,2825.28,350.49,348.57,9.29,0000 0000 0000 0000 000000
2015-01-20 11:39:25,0.28,2.63,0.00,23.57,28.17,30.91,4.85,27.57,1019.59,2026.06,2513.42,2598.89,2823.47,349.94,348.03,9.32,0000 0000 0000 0000 000000
2015-01-20 11:44:26,0.24,2.64,0.00,23.62,28.17,30.87,4.84,27.50,1019.58,2026.08,2511.35,2597.28,2821.61,349.93,347.90,9.35,0000 0000 0000 0000 000000
2015-01-20 11:49:27,0.27,2.65,0.00,23.58,28.17,30.89,4.84,27.46,1019.56,2026.09,2509.10,2595.52,2819.70,349.92,348.33,9.38,0000 0000 0000 0000 000000
2015-01-20 11:54:29,0.30,2.65,0.00,23.57,28.16,30.91,4.83,27.47,1019.57,2026.11,2506.68,2593.69,2817.73,350.14,348.13,9.41,0000 0000 0000 0000 000000
2015-01-20 11:59:30,0.27,2.66,0.00,23.60,28.15,30.87,4.77,27.46,1019.64,2026.21,2504.40,2591.97,2815.92,349.87,347.78,9.43,0000 0000 0000 0000 000000
2015-01-20 12:04:32,0.27,2.67,0.00,23.61,28.15,30.85,4.79,27.39,1019.61,2026.30,2502.04,2590.20,2814.05,350.19,348.18,9.46,0000 0000 0000 0000 000000
2015-01-20 12:09:33,0.24,2.68,0.00,23.62,28.15,30.86,4.82,27.57,1019.58,2026.13,2499.57,2588.33,2812.04,350.19,348.43,9.49,0000 0000 0000 0000 000000
2015-01-20 12:14:34,0.29,2.69,0.00,23.62,28.15,30.87,4.72,27.29,1019.58,2026.18,2497.19,2586.53,2810.06,349.04,347.01,9.52,0000 0000 0000 0000 000000
2015-01-20 12:19:35,0.28,2.69,0.00,23.62,28.15,30.85,4.81,27.33,1019.56,2026.26,2494.93,2584.77,2808.24,349.74,347.91,9.55,0000 0000 0000 0000 000000
2015-01-20 12:24:36,0.28,2.70,0.00,23.60,28.15,30.84,4.84,27.38,1019.55,2026.37,2492.69,2583.00,2806.30,350.28,348.15,9.58,0000 0000 0000 0000 000000
2015-01-20 12:29:37,0.26,2.71,0.00,23.61,28.15,30.86,4.79,27.34,1019.55,2026.30,2490.28,2581.24,2804.35,349.45,347.59,9.61,0000 0000 0000 0000 000000
2015-01-20 12:34:38,0.27,2.72,0.00,23.57,28.15,30.87,4.76,27.45,1019.55,2026.22,2487.84,2579.39,2802.40,350.35,348.29,9.64,0000 0000 0000 0000 000000
2015-01-20 12:39:40,0.27,2.73,0.00,23.59,28.15,30.87,4.91,27.51,1019.55,2026.14,2485.35,2577.58,2800.48,350.75,348.71,9.67,0000 0000 0000 0000 000000
2015-01-20 12:44:41,0.29,2.74,0.00,23.61,28.14,30.85,4.78,27.25,1019.55,2026.22,2483.13,2575.86,2798.67,349.52,347.55,9.70,0000 0000 0000 0000 000000
2015-01-20 12:49:42,0.26,2.74,0.00,23.59,28.14,30.83,4.75,27.29,1019.55,2026.37,2480.99,2574.26,2796.89,350.08,348.14,9.73,0000 0000 0000 0000 000000
2015-01-20 12:54:43,0.26,2.75,0.00,23.57,28.14,30.85,4.79,27.33,1019.55,2026.32,2478.74,2572.59,2795.10,350.40,348.41,9.76,0000 0000 0000 0000 000000
2015-01-20 12:59:44,0.22,2.76,0.00,23.63,28.13,30.87,4.82,27.38,1019.55,2026.33,2476.59,2570.93,2793.27,349.85,347.67,9.79,0000 0000 0000 0000 000000
2015-01-20 13:04:45,0.26,2.77,0.00,23.64,28.13,30.86,4.79,27.47,1019.54,2026.21,2474.34,2569.22,2791.34,350.10,348.07,9.81,0000 0000 0000 0000 000000